Details From KFLG - Flagstaff Pulliam
To KCMR - H A Clark Mem Fld
Flight Number -
Tags Decoded
Created
Modified
Stats Distance 39 nm / 73 km
Max Altitude 0 ft / 0 m
Waypoints 2
Social Downloads 1
Likes 0
Share VATSIM

Download

Looking for another format? Having issues loading an existing format? Contact us
Advertisement - Login to hide

Notes

Decoded

Route

KFLG KACEE

ID Type Via Altitude Latitude Longitude Leg Dist Tot Dist Heading (true) Name
O KFLG APT - 0 ft / 0 m 35.13122˚ -111.67892˚ - 0 nm - -
O KACEE FIX - 0 ft / 0 m 35.34668˚ -112.43907˚ 39 nm 39 nm 289° / 289° -

Altitude Profile

Advertisement - Login to hide

KFLG

Details ICAO KFLG (FLG)
Name Flagstaff Pulliam
Region United States
Timezone America/Phoenix (UTC-7.0)
Stats Elevation 7,011 ft / 2,137 m (AMSL)
Location 35.138455° -111.671215°
Runways 1
Magnetic Variation 10.422° E

METAR

KFLG 240957Z AUTO 00000KT 10SM CLR 03/M07 A3023 RMK AO2 SLP165 T00281072

Decode

TAF

TAF KFLG 240538Z 2406/2506 VRB05KT P6SM SKC FM241800 21010G20KT P6SM SKC FM250200 VRB05KT P6SM SKC

Decode

Departure Runways

ID Width Length Bearing (true) Bearing (mag) Surface Threshold Offset Overrun Length
03 150 ft / 46 m 7,003 ft / 2,135 m 41.03° 30.61° Asphalt 0 ft / 0 m 0 ft / 0 m
21 150 ft / 46 m 7,003 ft / 2,135 m 221.04° 210.62° Asphalt 0 ft / 0 m 0 ft / 0 m

KCMR

Details ICAO KCMR
Name H A CLARK MEM FLD
Region United States
Timezone America/Phoenix (UTC-7.0)
Stats Elevation 6,678 ft / 2,035 m (AMSL)
Location 35.302233° -112.194058°
Runways 1
Magnetic Variation 10.616° E

METAR

KCMR 241015Z AUTO 17008KT 10SM CLR 06/M06 A3019 RMK AO2

Decode

TAF

Not found

Destination Runways

ID Width Length Bearing (true) Bearing (mag) Surface Threshold Offset Overrun Length
18 100 ft / 30 m 6,007 ft / 1,831 m 192.20° 181.58° Asphalt 0 ft / 0 m 0 ft / 0 m
36 100 ft / 30 m 6,007 ft / 1,831 m 12.20° 1.58° Asphalt 0 ft / 0 m 0 ft / 0 m